Flag for U.S.A. Weather past 2 weeks in Austin, Texas, U.S.A.

Now
81 °F

Mostly cloudy.


Feels Like: 86 °F
Forecast: 74 / 93 °F
Wind: 5 mph from North

Location: Camp Mabry / Austin City

Current Time: Oct 2, 2014 at 11:43:10 AM

Latest Report: Oct 2, 2014 at 10:51 AM


Visibility: 6 mi

Pressure: 29.85 "Hg

Humidity: 79%

Dew point: 74 °F

Location of AustinLocation

Historic Weather in Austin — Graph

°F

Austin temperature yesterday

Maximum temperature yesterday: 92 °F (at 3:51 PM)
Minimum temperature yesterday: 76 °F (at 12:51 AM)
Average temperature yesterday: 82 °F

Past Weeks' High & Low Weather Summary

 TemperatureHumidityPressure
High92 °F (Oct 1, 3:51 PM)100% (Sep 18, 1:51 AM)30.16 "Hg (Sep 18, 1:51 AM)
Low60 °F (Sep 24, 6:51 AM)37% (Sep 24, 3:51 PM)29.72 "Hg (Oct 1, 4:51 PM)
Average77 °F72%29.96 "Hg
* Reported Sep 17 10:00 AM — Oct 2 9:51 AM, Austin, Weather by CustomWeather, © 2014

Note: Actual official high and low records may vary slightly from our data, if they occured in-between our weather recording intervals... More about our weather records

Advertising

Austin weather history for previous 24 hours

 ConditionsComfort  
Time TempWeatherWind HumidityBarometerVisibility
9:51 AM
Oct 2
80 °FOvercast.8 mph81%29.85 "Hg6 mi
8:51 AM80 °FMore clouds than sun.7 mph81%29.83 "Hg6 mi
7:51 AM79 °FOvercast.6 mph84%29.82 "Hg6 mi
6:51 AM79 °FMostly cloudy.7 mph82%29.81 "Hg8 mi
5:51 AM79 °FPartly cloudy.6 mph82%29.79 "Hg9 mi
4:51 AM79 °FMostly cloudy.5 mph88%29.78 "Hg9 mi
3:51 AM79 °FMostly cloudy.5 mph88%29.78 "Hg10 mi
2:51 AM79 °FOvercast.8 mph84%29.78 "Hg10 mi
1:51 AM79 °FOvercast.7 mph84%29.78 "Hg10 mi
12:51 AM78 °FOvercast.8 mph84%29.79 "Hg10 mi
11:51 PM
Oct 1
79 °FClear.8 mph77%29.80 "Hg10 mi
10:51 PM81 °FClear.8 mph69%29.80 "Hg10 mi
9:51 PM82 °FPassing clouds.8 mph67%29.78 "Hg10 mi
8:51 PM84 °FClear.3 mph63%29.76 "Hg10 mi
7:51 PM85 °FSunny.3 mph57%29.74 "Hg10 mi
6:51 PM87 °FSunny.5 mph51%29.73 "Hg10 mi
5:51 PM89 °FSunny.5 mph48%29.72 "Hg10 mi
4:51 PM90 °FPassing clouds.7 mph48%29.72 "Hg10 mi
3:51 PM92 °FScattered clouds.6 mph47%29.72 "Hg10 mi
2:51 PM90 °FScattered clouds.3 mph50%29.74 "Hg10 mi
1:51 PM90 °FPassing clouds.7 mph52%29.76 "Hg10 mi
12:51 PM88 °FScattered clouds.7 mph57%29.79 "Hg10 mi
11:51 AM85 °FScattered clouds.6 mph63%29.81 "Hg10 mi
Weather by CustomWeather, © 2014

See weather overviewHow to use our weather pages